Location: Dunedin
(45.8670°S, 170.5000°E)
Time: 02:30:57
(UTC+12:00)

Cosmos 2263 Rocket - Visible Passes

Search period start: 25 June 2019 00:00
Search period end: 05 July 2019 00:00
Orbit: 823 x 849 km, 71.0° (Epoch: 23 June)

Date Brightness Start Highest point End Pass type
(mag) Time Alt. Az. Time Alt. Az. Time Alt. Az.
25 Jun 3.7 05:19:14 26° SSE 05:19:14 26° SSE 05:21:40 10° SSE visible
25 Jun 3.9 07:00:57 14° SW 07:01:10 14° SW 07:04:05 10° S visible
26 Jun 4.1 05:03:19 19° SSE 05:03:19 19° SSE 05:04:55 10° SSE visible
26 Jun 3.9 06:45:03 15° SSW 06:45:03 15° SSW 06:47:29 10° S visible
27 Jun 4.5 04:47:19 15° SSE 04:47:19 15° SSE 04:48:10 10° SSE visible
27 Jun 4.0 06:29:01 14° SSW 06:29:01 14° SSW 06:30:51 10° S visible
28 Jun 4.8 04:31:13 11° SSE 04:31:13 11° SSE 04:31:26 10° SSE visible
28 Jun 4.2 06:12:56 13° SSW 06:12:56 13° SSW 06:14:12 10° S visible
29 Jun 4.3 05:56:47 12° S 05:56:47 12° S 05:57:33 10° S visible
30 Jun 4.5 05:40:35 11° S 05:40:35 11° S 05:40:53 10° S visible
